User: anonymous   Login
Location: Unspecified
(0.0000°N, 0.0000°E)
Time: 15:34:49
(UTC+00:00)
Language:

OBJECT AA - Orbit

View from above orbital plane
View from above orbital plane
View from above satellite
View from above satellite

Ground track
Ground track

The orbit data is extracted from the following two-line orbital elements,

1 43135U 18004AA  22280.18845764  .00045767  00000-0  12726-2 0  9995
2 43135  97.3651 357.4412 0005677 321.6790  38.4051 15.36694640263600
Epoch (UTC): 07 October 2022 04:31:22
Eccentricity: 0.0005677
inclination: 97.3651°
perigee height: 452 km
apogee height: 460 km
right ascension of ascending node: 357.4412°
argument of perigee: 321.6790°
revolutions per day: 15.36694640
mean anomaly at epoch: 38.4051°
orbit number at epoch: 26360

The dashed part of the orbit path shows where the satellite is in the earth's shadow,  

DLR